Location: Unspecified
(0.0000°N, 0.0000°E)
Time: 17:57:15
(UTC+00:00)

STARLINK 1063 - Pass Details

Date: 21 January 2020
Orbit: 548 x 551 km, 53.0° (Epoch: 17 January)

Event Time Altitude Azimuth Distance (km) Brightness Sun altitude
Rises 05:40:34 0° 227° (SW) 2,711 6.9 -7.2°
Reaches altitude 10° 05:42:54 10° 235° (SW) 1,815 5.9 -6.6°
Maximum altitude 05:46:45 38° 304° (NW) 844 4.1 -5.7°
Drops below altitude 10° 05:50:35 10° 13° (NNE) 1,807 6.2 -4.8°
Sets 05:52:55 0° 21° (NNE) 2,697 7.2 -4.3°
